Location: Beagona
(6.5905°N, 10.7508°W)
Time: 23:15:49
(UTC+00:00)

Daily predictions for brighter satellites

Satellite Brightness Start Highest point End
(mag) Time Altitude Azimuth Time Altitude Azimuth Time Altitude Azimuth
ATLAS 3B CENTAUR R/B 2.8 18:45:08 10° W 18:49:20 55° NNW 18:59:03 10° NE
NOSS 2-1 (E) 4.0 18:48:26 10° SW 18:52:48 56° WNW 18:56:20 10° NNE
Genesis I 3.6 18:49:48 10° N 18:53:20 38° ENE 18:56:51 10° SE
GPS 2-17 Rocket1 3.0 18:49:00 10° WSW 18:53:36 87° NNW 18:58:03 10° ENE
FALCON 9 DEB 2.4 18:53:10 10° SSW 18:55:24 47° SE 18:57:36 10° NE
YAOGAN 1 3.9 18:52:47 10° ESE 18:55:48 19° ENE 18:58:48 10° NNE
Cosmos 1378 Rocket 3.8 18:56:03 10° SSE 19:00:08 44° E 19:04:14 10° NNE
SWIFT 4.1 18:57:43 10° NNW 19:00:38 18° NNE 19:03:32 10° NE
Cosmos 2297 3.7 18:57:32 10° N 19:03:06 65° ENE 19:08:40 10° SSE
Okean-O 2.6 18:59:16 10° SSE 19:03:42 88° E 19:08:07 10° N
ARIANE 3 DEB 4.0 19:02:00 10° SW 19:04:21 20° S 19:06:10 10° SE
ADEOS Rocket 3.8 19:00:50 10° NE 19:05:41 29° ESE 19:10:51 10° SSE
FUSE 4.1 19:00:47 10° NW 19:06:02 54° NNE 19:11:16 10° E
GPS 2-18 Rocket1 3.7 19:04:02 10° WNW 19:07:56 57° SSW 19:11:47 10° ESE
Aureole 3 Rocket 3.4 19:04:45 10° NNE 19:08:15 41° E 19:12:55 10° SSE
STARLINK 1056 4.4 19:06:46 10° S 19:10:03 30° ESE 19:12:30 15° ENE
IUS-18 SRM-1 1.1 19:07:31 10° WNW 19:10:21 70° NNE 19:12:25 10° ESE
Cosmos 1975 2.7 19:07:07 10° N 19:11:08 78° E 19:15:10 10° S
Cosmos 1300 Rocket 4.0 19:08:04 10° NNE 19:12:03 37° E 19:16:05 10° SSE
Cosmos 1544 4.0 19:10:18 10° NNE 19:13:23 26° E 19:16:29 10° SE
STARLINK 1054 4.2 19:10:21 10° S 19:13:43 33° ESE 19:16:03 17° ENE
IRIDIUM 104 4.4 19:09:55 10° S 19:15:08 83° W 19:20:20 10° N
BLOCK DM-SL R/B 4.3 12:39:06 10° W 19:15:55 65° S 19:21:57 10° ESE
STARLINK 1062 4.0 19:13:49 10° SSW 19:17:17 37° ESE 19:19:28 19° ENE
BREEZE-M R/B 4.5 19:17:54 10° SE 19:18:12 11° SE 19:18:12 11° SE
CZ-2D R/B 4.4 19:16:55 10° SE 19:19:59 23° ENE 19:21:55 16° NE
Cosmos 405 4.1 19:17:36 10° SSW 19:20:58 45° W 19:24:22 10° N
STARLINK 1053 3.8 19:17:33 10° SSW 19:21:06 42° ESE 19:23:09 21° ENE
Ariane H10+ 4.2 19:20:52 10° SW 19:22:28 12° SSW 19:23:45 10° SSE
Cosmos 921 Rocket 4.5 19:19:24 10° NNW 19:23:33 41° W 19:27:46 10° S
STARLINK 1061 3.7 19:21:00 10° SSW 19:24:35 48° ESE 19:26:31 24° ENE
Cosmos 1939 Rocket 3.7 19:22:45 10° SE 19:26:15 28° ENE 19:28:26 17° NNE
Envisat 3.8 19:21:23 10° S 19:26:20 54° WSW 19:31:16 10° NNW
STARLINK 1067 3.5 19:24:35 10° SSW 19:28:14 54° SE 19:30:01 26° ENE
Meteor 2-9 Rocket 4.1 19:22:47 10° N 19:28:29 84° E 19:34:02 10° S
Atlas Centaur 2 3.5 19:22:56 10° WNW 19:30:28 62° SSW 19:38:54 10° SE
Meteor 1-12 Rocket 4.3 19:25:20 10° N 19:30:53 54° E 19:36:22 10° SSE
STARLINK 1058 3.4 19:28:11 10° SSW 19:31:52 62° ESE 19:33:32 29° NE
Centaur D-1AR AC-41 4.4 19:31:50 10° NW 19:35:20 26° NNE 19:37:30 22° ENE
STARLINK 1043 3.3 19:31:50 10° SSW 19:35:31 71° SE 19:37:03 33° NE
Okean 1 Rocket 4.2 19:36:26 24° E 19:36:26 24° E 19:39:32 10° SE
Meteor 2-19 Rocket 4.4 19:32:35 10° S 19:38:41 88° E 19:44:48 10° N
Meteor 1-23 Rocket 4.3 19:33:01 10° S 19:38:44 86° W 19:44:30 10° N
STARLINK 1065 3.2 19:35:26 10° SSW 19:39:08 80° SE 19:40:33 36° NE
Atlas 2A Centaur Rocket 4.4 19:23:38 10° SW 19:41:32 32° S 19:45:23 16° ESE
STARLINK 1063 3.2 19:39:10 10° SW 19:42:53 90° WNW 19:44:09 40° NE
Cosmos 2369 Rocket 2.6 19:41:20 10° N 19:46:29 36° ENE 19:51:40 10° SE
STARLINK 1064 3.3 19:42:46 10° SW 19:46:30 80° NW 19:47:38 42° NNE
STARLINK 1041 3.4 19:46:28 10° SW 19:50:10 70° WNW 19:51:10 45° NNE
ARIANE 5 DEB (SYLDA) 4.3 19:45:01 10° W 19:51:59 67° S 19:56:06 27° ESE
Cosmos 2151 Rocket 4.0 19:47:50 10° NNW 19:52:09 60° W 19:56:30 10° S
Cosmos 968 Rocket 4.4 19:48:50 10° SSE 19:53:06 30° ESE 19:53:06 30° ESE
STARLINK 1038 3.6 19:50:11 10° SW 19:53:52 62° NW 19:54:43 46° N
CZ-3A R/B 4.2 19:50:39 10° W 19:54:26 18° SW 19:56:33 10° S
STARLINK 1027 4.4 19:53:18 10° WSW 19:55:48 26° NW 19:56:09 25° NW
STARLINK 1021 4.5 19:53:45 10° WSW 19:56:14 26° NW 19:56:34 25° NW
STARLINK 1019 4.5 19:54:01 10° WSW 19:56:28 25° NW 19:56:46 25° NW
STARLINK 1012 4.5 19:54:14 10° WSW 19:56:42 25° NW 19:57:00 25° NW
CSL-04 Rocket 3.7 19:52:01 10° S 19:57:18 75° WSW 20:02:33 10° NNW
STARLINK 1046 3.8 19:53:55 10° SW 19:57:35 54° NW 19:58:18 45° NNW
BREEZE-M DEB (TANK) 3.3 19:51:36 10° SSW 19:59:17 56° SE 19:59:44 53° ESE
STARLINK 1039 4.0 19:57:40 10° SW 20:01:16 47° NW 20:01:52 43° NNW
ASC 2 Rocket 4.3 19:55:05 10° WNW 20:01:24 71° NNE 20:06:41 28° ESE
STARLINK 1045 4.2 20:00:15 10° SW 20:03:50 43° NW 20:04:19 41° NNW
Cosmos 1943 Rocket 2.0 19:58:57 10° N 20:04:29 75° ENE 20:09:59 10° SSE
Ariane Rocket 3.2 20:04:34 10° SSE 20:08:41 49° ESE 20:08:41 49° ESE
ATLAS CENTAUR R/B 3.4 20:09:24 10° S 20:11:34 21° SSE 20:11:34 21° SSE
Skynet4D Del rocket 4.0 20:06:16 10° WSW 20:13:38 76° SSE 20:15:13 54° E
CZ-4 R/B 4.1 20:11:12 10° SSW 20:14:05 19° W 20:16:54 10° NW
ARIANE 5 DEB (SYLDA) 3.3 20:07:39 10° W 20:16:51 47° SSW 20:17:30 43° SSE
Meteor 2-21 4.2 20:13:37 10° S 20:19:39 71° E 20:20:19 64° NE
Cosmos 967 Rocket 4.5 20:15:03 10° S 20:21:09 57° ESE 20:21:09 57° ESE
Cosmos 1975 Rocket 4.3 20:21:02 10° SSW 20:25:02 37° W 20:26:22 30° NW
Meteor 1-15 Rocket 4.4 20:43:03 70° SW 20:43:03 70° SW 20:48:30 10° S
COSMOS 2406 3.7 20:44:38 10° SSW 20:49:19 56° SW 20:49:19 56° SW
ATLAS 5 CENTAUR R/B 4.2 21:34:51 10° W 21:43:03 61° SSW 22:31:51 10° ESE
